Tracking 31032 objects as of 13-Jul-2025
HD Live streaming from Space Station
objects crossing your sky now

CZ-6A DEB

Track CZ-6A DEB now!
10-day predictions


NORAD ID: 56627
Int'l Code: 2022-151AFB
Perigee: 813.1 km
Apogee: 865.1 km
Inclination: 98.8 °
Period: 101.5 minutes
Semi major axis: 7210 km
RCS: Unknown
Launch date: November 11, 2022
Source: People's Republic of China (PRC)
Launch site: Taiyaun Space Center, China (TSC)

Note: This is SATELLITE DEBRIS
Your satellite tracking list
Your tracking list is empty




NASA's NSSDC Master Catalog

Two Line Element Set (TLE):
1 56627U 22151AFB 25193.83814639  .00001569  00000-0  78192-3 0  9990
2 56627  98.8290 202.4196 0036064 196.1517 163.8511 14.18061573123611
Source of the keplerian elements: AFSPC